Time,TemperatureF,DewpointF,PressureIn,WindDirection,WindDirectionDegrees,WindSpeedMPH,WindSpeedGustMPH,Humidity,HourlyPrecipIn,Conditions,Clouds,dailyrainin,SoftwareType,DateUTC
2013-04-15 00:14:00,62.4,26.1,29.53,West,270,8.3,-999.0,25,-99.99,,,0.00,Acu-Link.com,2013-04-15 06:14:00,
2013-04-15 00:29:00,61.9,25.7,29.54,WNW,292,10.3,-999.0,25,-99.99,,,0.00,Acu-Link.com,2013-04-15 06:29:00,
2013-04-15 00:44:00,61.2,25.1,29.53,West,270,15.0,-999.0,25,-99.99,,,0.00,Acu-Link.com,2013-04-15 06:44:00,
2013-04-15 01:00:00,59.7,24.8,29.53,WSW,247,6.7,-999.0,26,-99.99,,,0.00,Acu-Link.com,2013-04-15 07:00:00,
2013-04-15 01:46:00,58.3,24.5,29.54,SW,225,2.7,-999.0,27,-99.99,,,0.00,Acu-Link.com,2013-04-15 07:46:00,
2013-04-15 02:16:00,57.0,23.4,29.55,South,180,3.1,-999.0,27,-99.99,,,0.00,Acu-Link.com,2013-04-15 08:16:00,
2013-04-15 02:31:00,56.8,23.2,29.55,South,180,4.3,-999.0,27,-99.99,,,0.00,Acu-Link.com,2013-04-15 08:31:00,
2013-04-15 02:46:00,56.1,23.5,29.55,SW,225,2.7,-999.0,28,-99.99,,,0.00,Acu-Link.com,2013-04-15 08:46:00,
2013-04-15 03:17:00,53.1,23.2,29.55,South,180,1.6,-999.0,31,-99.99,,,0.00,Acu-Link.com,2013-04-15 09:17:00,
2013-04-15 03:32:00,52.3,23.4,29.56,SSW,202,2.2,-999.0,32,-99.99,,,0.00,Acu-Link.com,2013-04-15 09:32:00,
2013-04-15 03:47:00,51.6,22.7,29.56,West,270,2.7,-999.0,32,-99.99,,,0.00,Acu-Link.com,2013-04-15 09:47:00,
2013-04-15 04:02:00,51.4,22.6,29.56,West,270,0.0,-999.0,32,-99.99,,,0.00,Acu-Link.com,2013-04-15 10:02:00,
2013-04-15 04:18:00,50.7,22.7,29.56,SW,225,1.6,-999.0,33,-99.99,,,0.00,Acu-Link.com,2013-04-15 10:18:00,
2013-04-15 04:33:00,50.9,22.8,29.56,WSW,247,1.6,-999.0,33,-99.99,,,0.00,Acu-Link.com,2013-04-15 10:33:00,
2013-04-15 04:48:00,50.7,22.7,29.57,SW,225,2.2,-999.0,33,-99.99,,,0.00,Acu-Link.com,2013-04-15 10:48:00,
2013-04-15 05:03:00,50.4,22.4,29.56,WSW,247,1.6,-999.0,33,-99.99,,,0.00,Acu-Link.com,2013-04-15 11:03:00,
2013-04-15 05:18:00,49.5,22.3,29.56,SW,225,0.0,-999.0,34,-99.99,,,0.00,Acu-Link.com,2013-04-15 11:18:00,
2013-04-15 05:34:00,48.2,23.8,29.57,East,90,0.0,-999.0,38,-99.99,,,0.00,Acu-Link.com,2013-04-15 11:34:00,
2013-04-15 05:49:00,46.9,22.7,29.58,SW,225,0.0,-999.0,38,-99.99,,,0.00,Acu-Link.com,2013-04-15 11:49:00,
2013-04-15 06:04:00,46.4,22.2,29.58,WSW,247,2.7,-999.0,38,-99.99,,,0.00,Acu-Link.com,2013-04-15 12:04:00,
2013-04-15 06:19:00,46.6,22.4,29.58,West,270,3.8,-999.0,38,-99.99,,,0.00,Acu-Link.com,2013-04-15 12:19:00,
2013-04-15 06:35:00,46.0,22.5,29.59,North,0,0.0,-999.0,39,-99.99,,,0.00,Acu-Link.com,2013-04-15 12:35:00,
2013-04-15 06:50:00,45.7,22.8,29.60,WNW,292,0.0,-999.0,40,-99.99,,,0.00,Acu-Link.com,2013-04-15 12:50:00,
2013-04-15 07:05:00,48.6,23.5,29.60,East,90,2.7,-999.0,37,-99.99,,,0.00,Acu-Link.com,2013-04-15 13:05:00,
2013-04-15 07:20:00,51.1,24.4,29.61,SSE,157,2.2,-999.0,35,-99.99,,,0.00,Acu-Link.com,2013-04-15 13:20:00,
2013-04-15 07:35:00,54.5,25.3,29.61,East,90,1.1,-999.0,32,-99.99,,,0.00,Acu-Link.com,2013-04-15 13:35:00,
2013-04-15 07:51:00,59.4,24.5,29.61,SSE,157,0.0,-999.0,26,-99.99,,,0.00,Acu-Link.com,2013-04-15 13:51:00,
2013-04-15 08:06:00,62.6,25.3,29.63,East,90,1.6,-999.0,24,-99.99,,,0.00,Acu-Link.com,2013-04-15 14:06:00,
2013-04-15 08:21:00,64.2,25.7,29.63,South,180,1.1,-999.0,23,-99.99,,,0.00,Acu-Link.com,2013-04-15 14:21:00,
2013-04-15 08:36:00,66.2,26.2,29.63,East,90,0.0,-999.0,22,-99.99,,,0.00,Acu-Link.com,2013-04-15 14:36:00,
2013-04-15 08:51:00,66.2,26.2,29.61,WSW,247,0.0,-999.0,22,-99.99,,,0.00,Acu-Link.com,2013-04-15 14:51:00,
2013-04-15 09:07:00,61.3,25.2,29.61,ESE,112,3.8,-999.0,25,-99.99,,,0.00,Acu-Link.com,2013-04-15 15:07:00,
2013-04-15 09:22:00,63.3,25.9,29.60,East,90,5.1,-999.0,24,-99.99,,,0.00,Acu-Link.com,2013-04-15 15:22:00,
2013-04-15 09:37:00,63.3,26.9,29.60,WSW,247,1.6,-999.0,25,-99.99,,,0.00,Acu-Link.com,2013-04-15 15:37:00,
2013-04-15 09:52:00,65.7,26.9,29.60,West,270,4.3,-999.0,23,-99.99,,,0.00,Acu-Link.com,2013-04-15 15:52:00,
2013-04-15 10:07:00,66.0,27.2,29.60,SW,225,4.3,-999.0,23,-99.99,,,0.00,Acu-Link.com,2013-04-15 16:07:00,
2013-04-15 10:23:00,67.5,27.3,29.60,SW,225,5.1,-999.0,22,-99.99,,,0.00,Acu-Link.com,2013-04-15 16:23:00,
2013-04-15 10:38:00,67.6,26.3,29.61,SSW,202,5.1,-999.0,21,-99.99,,,0.00,Acu-Link.com,2013-04-15 16:38:00,
2013-04-15 10:53:00,68.7,26.0,29.60,SE,135,6.7,-999.0,20,-99.99,,,0.00,Acu-Link.com,2013-04-15 16:53:00,
2013-04-15 11:08:00,69.8,25.7,29.59,South,180,9.4,-999.0,19,-99.99,,,0.00,Acu-Link.com,2013-04-15 17:08:00,
2013-04-15 11:24:00,70.9,26.6,29.60,West,270,3.8,-999.0,19,-99.99,,,0.00,Acu-Link.com,2013-04-15 17:24:00,
2013-04-15 11:39:00,70.9,25.3,29.59,SW,225,7.4,-999.0,18,-99.99,,,0.00,Acu-Link.com,2013-04-15 17:39:00,
2013-04-15 11:54:00,72.5,25.2,29.58,SE,135,7.4,-999.0,17,-99.99,,,0.00,Acu-Link.com,2013-04-15 17:54:00,
2013-04-15 12:09:00,74.7,25.5,29.57,WSW,247,4.3,-999.0,16,-99.99,,,0.00,Acu-Link.com,2013-04-15 18:09:00,
2013-04-15 12:24:00,75.7,26.4,29.55,SSE,157,6.3,-999.0,16,-99.99,,,0.00,Acu-Link.com,2013-04-15 18:24:00,
2013-04-15 12:40:00,76.3,25.2,29.54,WSW,247,5.1,-999.0,15,-99.99,,,0.00,Acu-Link.com,2013-04-15 18:40:00,
2013-04-15 12:55:00,75.6,24.7,29.53,SSE,157,4.7,-999.0,15,-99.99,,,0.00,Acu-Link.com,2013-04-15 18:55:00,
2013-04-15 13:10:00,76.1,23.4,29.53,SSE,157,5.8,-999.0,14,-99.99,,,0.00,Acu-Link.com,2013-04-15 19:10:00,
2013-04-15 13:25:00,76.6,23.9,29.52,SW,225,7.8,-999.0,14,-99.99,,,0.00,Acu-Link.com,2013-04-15 19:25:00,
2013-04-15 13:40:00,79.5,24.4,29.49,West,270,8.9,-999.0,13,-99.99,,,0.00,Acu-Link.com,2013-04-15 19:40:00,
2013-04-15 13:56:00,79.0,23.9,29.48,SW,225,5.1,-999.0,13,-99.99,,,0.00,Acu-Link.com,2013-04-15 19:56:00,
2013-04-15 14:11:00,79.3,20.3,29.47,West,270,5.1,-999.0,11,-99.99,,,0.00,Acu-Link.com,2013-04-15 20:11:00,
2013-04-15 14:26:00,82.4,22.6,29.46,South,180,9.4,-999.0,11,-99.99,,,0.00,Acu-Link.com,2013-04-15 20:26:00,
2013-04-15 14:41:00,81.3,19.6,29.45,West,270,13.0,-999.0,10,-99.99,,,0.00,Acu-Link.com,2013-04-15 20:41:00,
2013-04-15 14:56:00,81.3,19.6,29.44,SSW,202,8.9,-999.0,10,-99.99,,,0.00,Acu-Link.com,2013-04-15 20:56:00,
2013-04-15 14:57:00,81.3,19.6,29.44,SSW,202,8.9,-999.0,10,-99.99,,,0.00,Acu-Link.com,2013-04-15 20:57:00,
2013-04-15 15:12:00,82.8,20.6,29.44,SSW,202,2.7,-999.0,10,-99.99,,,0.00,Acu-Link.com,2013-04-15 21:12:00,
2013-04-15 15:27:00,83.8,16.3,29.43,SW,225,9.4,-999.0,8,-99.99,,,0.00,Acu-Link.com,2013-04-15 21:27:00,
2013-04-15 15:42:00,83.1,15.7,29.41,SW,225,5.1,-999.0,8,-99.99,,,0.00,Acu-Link.com,2013-04-15 21:42:00,
2013-04-15 15:57:00,84.0,16.4,29.41,South,180,7.4,-999.0,8,-99.99,,,0.00,Acu-Link.com,2013-04-15 21:57:00,
2013-04-15 16:13:00,84.4,16.7,29.41,West,270,11.4,-999.0,8,-99.99,,,0.00,Acu-Link.com,2013-04-15 22:13:00,
2013-04-15 16:28:00,84.9,17.1,29.40,West,270,13.0,-999.0,8,-99.99,,,0.00,Acu-Link.com,2013-04-15 22:28:00,
2013-04-15 16:43:00,83.5,16.0,29.40,West,270,18.6,-999.0,8,-99.99,,,0.00,Acu-Link.com,2013-04-15 22:43:00,
2013-04-15 16:58:00,82.2,15.1,29.40,WSW,247,15.0,-999.0,8,-99.99,,,0.00,Acu-Link.com,2013-04-15 22:58:00,
2013-04-15 17:13:00,81.9,17.5,29.40,SW,225,11.9,-999.0,9,-99.99,,,0.00,Acu-Link.com,2013-04-15 23:13:00,
2013-04-15 17:29:00,81.0,16.8,29.42,WNW,292,17.0,-999.0,9,-99.99,,,0.00,Acu-Link.com,2013-04-15 23:29:00,
2013-04-15 17:44:00,80.1,16.2,29.42,WNW,292,12.5,-999.0,9,-99.99,,,0.00,Acu-Link.com,2013-04-15 23:44:00,
2013-04-15 17:59:00,80.6,16.6,29.42,West,270,13.4,-999.0,9,-99.99,,,0.00,Acu-Link.com,2013-04-15 23:59:00,
2013-04-15 18:14:00,79.0,17.8,29.43,WSW,247,20.1,-999.0,10,-99.99,,,0.00,Acu-Link.com,2013-04-16 00:14:00,
2013-04-15 18:29:00,78.3,17.2,29.44,West,270,19.7,-999.0,10,-99.99,,,0.00,Acu-Link.com,2013-04-16 00:29:00,
2013-04-15 18:45:00,77.0,16.3,29.45,WNW,292,17.7,-999.0,10,-99.99,,,0.00,Acu-Link.com,2013-04-16 00:45:00,
2013-04-15 19:00:00,76.6,18.2,29.45,SW,225,14.5,-999.0,11,-99.99,,,0.00,Acu-Link.com,2013-04-16 01:00:00,
2013-04-15 19:15:00,75.0,17.0,29.47,West,270,16.6,-999.0,11,-99.99,,,0.00,Acu-Link.com,2013-04-16 01:15:00,
2013-04-15 19:31:00,73.6,15.8,29.47,WSW,247,11.0,-999.0,11,-99.99,,,0.00,Acu-Link.com,2013-04-16 01:31:00,
2013-04-15 20:01:00,71.6,16.3,29.49,WSW,247,9.8,-999.0,12,-99.99,,,0.00,Acu-Link.com,2013-04-16 02:01:00,
2013-04-15 20:16:00,71.1,15.9,29.50,West,270,11.0,-999.0,12,-99.99,,,0.00,Acu-Link.com,2013-04-16 02:16:00,
2013-04-15 20:31:00,70.2,17.0,29.51,West,270,8.9,-999.0,13,-99.99,,,0.00,Acu-Link.com,2013-04-16 02:31:00,
2013-04-15 20:47:00,69.3,16.3,29.52,West,270,9.8,-999.0,13,-99.99,,,0.00,Acu-Link.com,2013-04-16 02:47:00,
2013-04-15 21:02:00,68.4,17.3,29.53,West,270,11.9,-999.0,14,-99.99,,,0.00,Acu-Link.com,2013-04-16 03:02:00,
2013-04-15 21:17:00,67.8,18.5,29.54,WSW,247,8.9,-999.0,15,-99.99,,,0.00,Acu-Link.com,2013-04-16 03:17:00,
2013-04-15 21:32:00,66.7,17.6,29.55,WSW,247,7.4,-999.0,15,-99.99,,,0.00,Acu-Link.com,2013-04-16 03:32:00,
2013-04-15 21:47:00,65.7,18.3,29.56,WSW,247,4.7,-999.0,16,-99.99,,,0.00,Acu-Link.com,2013-04-16 03:47:00,
2013-04-15 22:03:00,64.6,18.8,29.57,West,270,3.8,-999.0,17,-99.99,,,0.00,Acu-Link.com,2013-04-16 04:03:00,
2013-04-15 22:18:00,63.3,19.1,29.58,West,270,4.7,-999.0,18,-99.99,,,0.00,Acu-Link.com,2013-04-16 04:18:00,
2013-04-15 22:33:00,63.0,18.8,29.58,West,270,3.1,-999.0,18,-99.99,,,0.00,Acu-Link.com,2013-04-16 04:33:00,
2013-04-15 22:48:00,61.7,19.0,29.59,SW,225,2.7,-999.0,19,-99.99,,,0.00,Acu-Link.com,2013-04-16 04:48:00,
2013-04-15 23:03:00,60.6,18.1,29.59,WSW,247,2.7,-999.0,19,-99.99,,,0.00,Acu-Link.com,2013-04-16 05:03:00,
2013-04-15 23:19:00,59.5,17.3,29.59,SW,225,2.2,-999.0,19,-99.99,,,0.00,Acu-Link.com,2013-04-16 05:19:00,
2013-04-15 23:34:00,61.7,16.5,29.59,WSW,247,5.8,-999.0,17,-99.99,,,0.00,Acu-Link.com,2013-04-16 05:34:00,
2013-04-15 23:49:00,63.7,18.1,29.59,WSW,247,4.7,-999.0,17,-99.99,,,0.00,Acu-Link.com,2013-04-16 05:49:00,